RH
86 83 77 74 71 67 65 65 66 64 62 62 61 56 50 44 40 37 37 38 37 36 35 35 34 35 44 55 57 54 53 51 49 49 48 49 52 55 55 54 48 40 34 31 34 39 44 50 56 61 61 60 61 62 57 51 53 58 60 44 37 45 47 61 70 73 73 69 68 61 63 60 51 51 56 59 59 54 51 51 45 52 57 44 37
88 85 80 76 71 69 65 66 65 63 63 62 57 49 44 40 38 38 39 38 36 36 38 39 40 43 52 57 55 53 51 49 48 47 47 46 46 48 52 54 54 52 48 45 44 46 51 56 60 62 60 62 64 63 55 47 51 57 57 44 37 47 50 53 64 72 72 71 69 65 66 61 55 52 54 55 53 51 50 51 47 61 65 44 38
80 85 84 81 77 72 66 66 64 63 64 57 50 45 41 39 39 40 38 36 34 35 39 42 45 50 54 54 51 50 48 47 46 45 45 43 43 44 45 47 50 51 51 52 53 55 56 58 61 61 62 63 65 63 55 47 51 57 53 44 38 43 51 53 58 65 70 72 69 68 70 64 61 59 58 58 56 56 55 53 47 55 55 40 39
73 83 79 72 70 67 63 64 64 65 60 50 46 43 40 40 41 37 34 32 32 35 40 44 46 49 49 48 47 46 45 44 43 43 42 41 41 42 43 48 52 52 52 52 52 54 54 57 60 61 62 63 64 62 56 52 54 59 53 42 37 39 48 54 58 63 70 74 73 69 67 58 54 53 52 52 53 55 55 54 47 47 47 40 40
68 73 67 62 61 61 60 62 65 63 52 47 45 41 41 41 37 31 30 31 34 39 42 44 45 46 45 44 43 42 42 42 43 42 41 40 41 42 44 52 54 53 54 54 56 56 56 59 61 59 59 59 61 61 59 57 58 58 51 40 35 36 43 51 58 64 68 73 77 68 58 56 55 51 49 51 52 52 49 47 43 42 44 41 41
66 66 63 61 59 60 58 60 62 57 48 47 44 41 42 37 31 29 31 35 39 43 44 46 47 47 45 43 42 42 42 43 44 43 44 43 43 44 46 53 55 54 55 57 60 60 60 60 59 57 56 57 58 59 59 59 61 56 48 42 34 33 40 48 58 66 71 74 74 69 64 68 69 65 64 67 65 58 50 46 41 39 41 39 40
64 64 64 59 57 58 57 59 58 51 47 46 42 42 40 31 29 32 35 39 42 44 47 49 49 48 47 46 45 45 45 45 46 47 46 45 46 46 48 55 58 58 58 61 62 61 60 59 57 54 54 56 56 56 57 58 61 59 53 49 37 28 35 44 54 65 73 72 67 70 72 75 75 71 68 68 68 62 56 54 45 37 36 36 37
61 63 63 56 54 55 56 58 55 49 48 46 42 42 35 28 32 36 39 42 45 48 50 51 51 52 52 52 51 49 48 48 49 50 48 46 46 48 51 56 60 63 63 63 63 61 58 57 56 54 54 55 56 55 57 60 61 61 59 60 50 30 30 41 48 58 67 69 68 70 72 75 77 74 68 64 63 63 63 64 59 49 40 36 35
59 61 61 57 53 53 55 55 52 49 49 45 42 41 31 29 36 40 42 46 49 51 52 53 54 56 57 57 55 53 51 51 51 51 49 47 47 49 52 54 57 62 62 61 61 60 59 57 55 55 55 56 57 57 59 62 62 63 62 65 60 38 28 36 45 56 63 62 65 69 72 79 81 77 73 68 66 67 72 72 68 66 57 50 43
61 61 60 58 55 55 55 54 52 50 50 45 43 40 30 32 40 44 47 49 51 52 53 54 56 58 60 59 57 56 55 54 52 52 50 47 48 50 51 51 53 57 58 59 58 59 59 57 56 56 57 57 58 60 61 62 62 62 62 62 62 54 40 35 39 52 63 60 61 68 72 78 79 80 75 70 69 64 69 73 70 71 66 62 56
65 62 60 57 56 57 56 54 52 51 51 45 44 39 30 34 42 46 49 50 51 51 53 54 57 60 61 60 57 57 56 55 54 52 51 49 50 50 50 50 53 57 58 57 57 57 57 58 57 57 57 57 58 59 60 60 60 59 60 60 61 64 58 48 39 43 59 63 65 68 70 72 72 78 75 75 74 61 60 65 66 68 67 65 63
66 63 61 59 59 60 57 55 52 52 51 46 45 39 31 37 44 47 49 50 51 51 52 54 57 60 61 59 57 56 56 56 55 53 51 50 51 52 52 53 56 57 54 50 50 51 52 53 53 55 56 56 58 59 60 59 59 59 59 60 59 63 66 65 53 43 50 58 62 65 70 72 70 72 77 79 72 63 59 58 61 65 69 71 66
66 64 63 62 62 61 59 57 54 54 52 47 46 40 32 39 46 48 50 50 51 51 51 54 56 60 60 58 57 56 55 55 55 53 51 51 51 54 55 57 59 54 47 44 45 47 49 50 50 51 52 53 55 56 59 60 60 60 59 59 59 60 65 70 67 55 48 50 57 62 65 67 65 65 74 77 63 58 58 56 60 63 68 74 70
67 66 64 63 63 62 60 58 56 54 52 49 47 41 34 39 46 48 50 50 51 51 51 53 56 60 60 59 58 57 55 54 55 54 51 51 52 55 57 60 57 49 46 48 50 52 54 56 56 55 55 55 55 55 56 57 59 59 58 59 59 58 61 66 71 66 54 47 49 57 61 61 63 62 62 63 57 53 55 60 63 62 61 66 71
69 67 64 63 63 63 61 59 57 54 54 51 47 43 35 39 46 48 50 50 50 50 51 53 56 60 61 60 58 57 57 54 53 53 52 51 53 56 59 60 54 51 54 57 59 59 61 62 61 59 59 57 55 55 54 56 57 57 57 58 59 58 59 65 69 70 64 53 48 53 60 62 64 67 56 49 52 47 50 59 59 62 60 57 65
71 69 65 64 63 62 60 60 59 56 55 52 48 45 37 39 46 48 50 50 50 50 50 52 55 59 61 59 56 56 57 55 52 51 53 53 54 56 59 59 55 57 61 62 62 63 63 60 59 58 57 53 49 49 51 54 56 56 56 56 58 57 60 67 69 69 68 63 57 55 56 52 52 64 55 48 50 38 49 62 52 53 56 53 54
73 72 68 65 62 62 60 59 60 59 58 54 49 45 40 39 45 48 49 50 49 50 50 52 55 59 60 58 54 54 56 56 54 53 55 55 56 58 59 58 59 61 60 58 60 62 61 56 54 53 50 46 42 43 47 51 53 57 57 54 55 55 56 64 70 69 67 67 65 65 60 46 40 45 39 48 55 37 47 66 58 49 43 46 49
72 73 70 68 64 62 61 59 60 61 59 56 50 46 43 41 45 48 48 50 49 50 50 51 55 58 59 57 54 54 56 55 55 57 58 56 55 57 59 59 58 56 52 53 56 58 56 52 53 53 51 48 43 44 48 52 52 55 55 49 46 48 50 59 69 68 65 66 67 72 63 41 34 33 26 39 49 39 45 61 64 56 39 36 44
69 71 70 70 67 63 61 59 59 60 57 55 50 46 46 44 46 47 48 50 49 50 50 51 55 57 57 56 55 55 56 55 54 55 54 52 50 48 49 49 46 44 46 49 51 52 50 51 56 60 61 59 54 49 50 54 51 52 53 43 41 43 44 54 62 63 65 66 67 72 60 38 34 34 30 35 34 33 46 55 57 55 46 36 36
69 71 69 68 67 63 60 59 56 55 54 52 49 46 47 46 47 48 48 49 48 49 49 51 54 56 56 55 54 53 54 54 54 55 52 49 47 42 39 38 38 40 44 46 46 47 51 56 60 65 70 68 64 56 49 51 50 53 53 47 51 51 42 45 50 56 63 64 66 69 65 55 48 41 35 43 44 34 37 47 48 49 54 45 34
68 72 72 68 66 65 61 60 55 52 51 48 46 45 47 47 48 48 48 49 48 49 49 51 54 56 55 54 52 50 51 51 54 57 55 51 48 47 44 42 44 46 48 48 49 52 57 64 66 68 73 71 65 57 48 48 50 53 52 51 60 55 42 40 41 50 56 57 65 65 68 69 63 60 50 45 45 40 38 40 41 43 53 50 35
64 70 74 70 68 67 63 60 55 50 48 44 43 44 46 46 48 48 48 48 48 49 49 50 54 56 54 52 50 49 50 51 54 57 57 53 49 49 49 50 51 50 50 52 57 61 65 68 68 68 69 68 62 53 45 46 51 53 52 52 54 51 45 43 40 48 50 50 62 60 61 68 64 69 66 50 39 40 44 40 36 34 44 51 37
62 66 72 71 69 68 65 60 55 49 46 43 41 43 44 45 47 47 48 47 47 48 49 50 54 56 54 51 50 50 50 52 57 57 56 54 53 55 53 52 53 52 53 58 63 64 65 67 67 66 65 68 65 54 46 43 46 47 48 48 46 45 46 48 46 48 48 48 59 58 55 61 64 68 70 66 54 44 42 42 43 40 46 54 39
60 63 67 68 68 68 65 60 55 50 47 44 41 43 43 44 46 46 47 46 47 48 49 50 54 55 53 51 51 50 52 54 56 57 59 58 58 62 59 55 55 57 59 60 62 62 62 65 65 64 65 70 68 62 54 47 44 44 45 45 41 41 43 46 49 50 50 47 49 51 53 56 61 67 67 67 67 60 51 45 46 49 56 57 42
58 63 64 65 66 65 63 60 56 51 47 44 42 42 43 44 46 45 46 46 47 48 48 50 53 55 53 52 52 52 53 53 54 56 61 63 62 64 62 59 59 60 62 60 61 61 60 59 60 63 65 68 69 67 64 57 53 51 49 46 43 44 44 41 44 51 53 50 43 37 46 54 56 61 65 65 66 71 68 57 54 57 59 51 37
57 61 63 63 62 60 60 60 57 52 48 44 42 42 43 44 46 45 45 45 47 48 48 51 53 54 54 52 53 54 52 52 54 56 60 64 66 65 63 62 62 61 61 61 60 60 59 55 55 60 62 66 70 69 70 66 60 57 54 50 42 41 46 41 38 51 57 54 45 31 34 46 52 57 62 69 68 70 76 72 69 66 63 53 39
53 55 58 60 59 57 57 58 58 54 49 45 42 41 42 44 45 44 43 45 48 50 51 54 54 54 54 53 53 54 53 54 54 56 60 63 64 63 62 61 61 60 58 58 59 58 57 55 55 57 61 66 68 66 68 71 67 61 55 51 40 35 44 40 27 39 55 57 48 35 30 34 44 55 59 69 71 65 71 76 76 72 66 61 56
50 49 52 55 56 56 55 57 58 56 51 45 42 40 41 43 43 42 43 46 49 53 55 55 54 53 54 53 53 54 53 56 56 57 60 60 60 59 58 58 58 59 58 58 58 55 54 55 56 58 62 65 64 61 60 67 71 64 55 49 41 34 37 35 17 22 48 58 52 41 34 30 34 49 59 66 69 66 69 73 73 72 69 63 64
48 46 47 50 52 54 55 56 57 57 54 47 42 40 40 42 44 43 44 47 49 57 58 53 53 52 52 52 54 55 55 59 60 59 61 61 58 54 54 54 53 55 56 57 55 53 53 56 58 60 64 66 63 59 57 62 63 55 49 44 40 36 35 31 10 9 38 56 59 49 34 31 29 38 59 64 63 67 69 72 70 67 70 67 65
43 44 45 47 49 51 53 54 55 55 53 50 46 42 41 45 45 44 44 45 50 58 57 52 52 50 50 53 55 57 57 61 62 60 62 60 54 51 53 54 51 52 53 54 54 54 55 57 59 62 67 68 65 60 58 60 56 47 42 40 41 41 41 28 6 13 39 52 59 54 37 30 25 34 60 66 61 66 66 71 74 68 67 68 68
39 40 41 44 46 47 47 50 52 50 48 49 48 43 42 46 44 42 44 45 50 55 51 50 50 49 51 54 55 55 57 61 60 59 60 57 51 50 52 53 52 51 52 54 55 56 59 61 60 64 70 69 64 56 55 59 56 49 42 41 39 41 50 34 24 45 58 58 57 57 51 33 21 37 61 64 61 66 64 67 70 69 70 67 66
37 34 35 39 42 44 43 47 49 45 45 47 48 45 42 44 42 42 46 47 49 49 47 49 49 49 51 52 53 51 53 57 56 56 58 54 50 48 49 50 51 51 52 52 53 58 62 66 65 69 73 66 58 51 53 60 57 51 46 46 39 42 51 26 24 48 50 56 59 56 62 50 37 47 59 63 63 64 65 68 67 65 68 67 65
36 34 33 33 37 44 45 45 46 42 44 48 47 45 42 43 42 43 47 46 46 45 45 48 48 50 51 51 51 48 47 51 51 51 53 52 46 46 48 48 50 50 51 52 55 60 64 68 69 69 66 57 53 49 52 58 55 52 51 49 40 45 45 11 19 49 42 51 62 55 60 64 68 65 60 66 64 62 64 68 68 64 62 63 65
36 34 31 28 31 42 47 45 41 36 39 45 48 48 46 46 46 46 48 45 44 44 44 47 49 51 53 52 52 49 47 49 50 48 50 49 45 47 50 49 48 49 52 56 59 63 65 68 67 63 57 49 51 50 50 55 55 54 55 51 43 47 36 1 16 53 52 53 59 57 56 63 82 83 73 74 69 64 65 66 67 63 58 58 60
35 33 30 27 26 34 42 43 37 31 32 40 45 48 49 50 49 49 49 44 42 43 44 47 49 51 54 55 54 52 52 53 53 51 52 52 50 51 53 50 47 50 58 60 61 65 67 67 62 55 51 49 52 50 49 55 56 54 55 51 48 46 25 2 20 49 60 60 56 59 59 58 75 86 82 75 71 67 62 64 66 62 59 58 59
32 33 31 28 26 27 32 36 32 28 30 33 37 39 43 47 47 47 47 42 41 43 44 46 48 50 54 55 55 54 55 56 56 55 55 56 56 56 57 53 47 50 58 60 60 65 67 64 57 49 48 50 53 52 52 54 53 56 57 46 43 37 10 11 45 59 61 63 59 62 63 59 64 74 79 75 74 71 63 67 70 67 63 58 59
31 31 31 28 27 25 26 29 28 28 29 30 32 33 35 38 39 43 45 42 41 43 43 45 47 49 52 53 54 54 54 56 56 56 55 56 60 60 60 56 48 48 54 59 62 65 67 57 48 46 48 53 54 53 53 48 44 50 52 38 31 26 7 22 60 66 59 60 63 69 66 62 60 58 62 65 68 70 68 70 71 71 69 61 59
31 30 31 29 28 27 26 27 27 29 30 30 31 31 32 33 35 40 42 40 40 41 42 44 46 48 50 51 52 52 54 55 55 56 55 58 62 62 60 53 47 47 53 62 65 67 66 52 44 42 45 55 55 53 50 38 32 32 33 30 23 17 17 36 61 62 60 61 61 65 64 61 61 55 54 56 60 63 63 64 66 67 67 64 62
31 29 29 29 29 29 28 28 28 29 30 30 31 31 32 32 33 37 37 36 39 40 42 44 45 47 48 49 50 51 53 54 55 55 55 60 63 62 58 52 48 49 55 62 65 69 64 51 45 40 40 49 50 51 45 28 23 22 21 23 18 17 26 45 58 57 60 64 59 60 62 58 59 61 59 59 58 57 55 54 59 63 62 61 60
33 30 27 27 27 27 27 27 27 28 29 29 29 30 31 31 31 33 33 34 36 38 41 42 44 45 47 49 48 49 51 51 54 56 57 60 63 63 60 56 54 54 57 60 63 68 60 45 42 43 41 44 49 50 38 22 19 19 19 19 15 18 31 47 56 56 62 67 59 62 67 60 57 61 61 59 56 56 54 47 48 58 65 64 57
34 32 28 26 25 25 25 26 26 27 27 27 27 26 27 28 27 28 29 31 33 36 38 40 42 43 45 47 46 46 48 48 52 56 58 60 62 63 61 60 58 58 60 59 61 63 55 44 43 47 38 32 50 55 35 25 23 18 20 23 19 21 32 46 52 55 66 68 60 59 63 61 58 58 59 55 53 56 57 52 51 55 57 57 55
33 31 28 25 25 25 24 25 25 25 25 24 24 23 24 25 25 26 27 29 32 35 38 39 39 40 42 44 44 43 44 46 50 55 58 59 62 62 60 59 56 57 58 57 61 56 47 48 46 43 33 28 50 58 40 34 33 26 23 21 23 28 32 37 45 54 62 63 61 59 59 62 59 56 57 53 53 57 55 55 58 59 55 52 55
32 31 29 27 25 24 23 24 23 22 23 23 22 21 22 23 24 26 27 29 31 33 36 38 37 36 39 41 42 41 42 44 47 53 56 58 61 60 59 58 54 54 55 56 62 50 39 47 41 29 31 39 50 50 43 43 42 35 29 27 34 44 44 34 36 50 54 51 56 57 54 57 55 51 53 50 52 56 53 54 54 51 53 54 57
30 28 28 26 24 23 22 22 21 20 21 22 21 21 21 22 24 26 28 29 30 33 33 33 33 33 35 38 39 40 41 42 44 49 53 55 59 60 58 58 56 56 56 57 57 45 42 49 39 25 29 47 56 48 42 45 45 40 41 41 34 44 57 44 34 42 46 46 50 50 47 52 53 49 46 39 39 46 50 56 52 39 37 41 46
26 25 23 22 21 20 21 21 20 20 20 20 20 20 20 22 22 23 25 25 27 29 27 24 25 25 27 33 35 37 38 39 41 44 49 53 56 58 57 57 60 60 58 55 47 42 48 48 37 30 33 48 57 49 42 44 47 46 47 44 32 40 52 42 42 50 50 52 53 51 49 54 59 55 52 44 38 44 51 56 55 48 42 41 44
24 23 22 20 19 19 20 20 20 20 19 19 20 19 18 18 18 18 19 19 19 20 17 16 18 19 22 27 29 32 35 38 40 42 46 51 53 54 56 57 61 62 58 50 42 42 48 45 40 39 39 46 49 43 43 46 50 49 47 46 44 50 47 37 47 55 51 52 53 55 56 59 63 62 64 60 50 47 50 56 60 58 55 52 51
21 22 22 19 18 18 18 19 19 18 18 18 18 17 15 15 15 15 16 16 15 14 14 17 20 22 24 25 25 27 31 35 38 41 44 47 49 51 55 57 60 62 58 47 42 46 47 46 47 44 40 44 43 39 43 48 52 51 51 52 52 55 53 46 47 49 52 54 54 57 59 62 66 67 69 67 62 56 51 58 62 61 63 58 56
20 22 21 19 17 17 17 17 18 17 17 17 17 16 13 12 12 13 14 15 14 15 17 21 24 28 30 30 28 26 25 28 31 36 40 43 45 50 54 57 58 60 58 46 41 47 49 46 45 41 40 43 40 38 43 47 50 50 48 51 54 59 60 58 58 57 57 57 60 61 57 58 60 62 67 67 68 65 57 62 66 64 67 64 61
20 19 19 19 18 17 17 17 17 18 18 17 16 15 13 12 12 12 13 13 13 14 19 24 27 30 33 33 30 27 24 23 24 28 35 39 43 50 54 56 57 57 57 49 44 46 44 39 39 37 40 42 38 38 42 44 45 45 43 43 48 56 59 62 66 64 59 61 71 75 67 63 60 60 67 66 65 67 64 65 66 65 68 69 67
19 18 19 19 19 18 16 17 17 18 18 18 17 16 14 13 12 12 12 13 12 14 18 22 24 25 27 28 27 25 23 21 22 24 31 37 42 49 54 55 56 57 56 49 46 48 39 31 35 37 38 40 37 36 40 42 41 40 39 37 38 44 53 60 62 61 61 63 68 74 76 72 70 74 76 66 61 68 72 71 69 69 70 70 70
18 18 19 19 18 18 16 16 17 18 18 17 17 16 15 13 11 11 11 11 11 13 16 20 21 21 21 22 22 23 24 23 26 28 30 37 43 49 54 56 56 57 57 46 41 48 43 32 34 37 36 38 36 35 39 40 41 40 38 37 36 38 42 47 52 56 61 64 61 68 82 81 75 77 76 67 64 70 76 76 75 75 73 72 72
Wind_Speed
24 25 27 28 28 29 29 28 28 28 28 28 26 25 23 22 20 19 18 17 16 16 16 15 15 16 17 17 16 15 15 14 14 14 14 13 13 12 11 11 11 11 11 11 11 10 8 5 3 3 4 6 7 8 8 8 7 8 8 9 10 11 12 12 13 14 13 13 11 9 9 7 7 7 6 6 5 5 4 4 4 4 5 5 5
25 26 28 28 28 28 28 28 28 28 28 27 25 24 22 21 19 18 17 17 16 16 16 16 16 17 17 16 16 15 14 13 13 13 12 12 12 12 11 11 10 10 9 9 8 7 6 4 3 4 5 7 8 8 8 9 9 9 9 9 10 11 12 12 12 12 12 12 11 10 9 8 7 7 6 5 5 4 4 4 4 4 4 4 5
24 26 27 28 28 27 28 28 28 28 27 26 25 23 21 20 19 18 17 17 16 16 16 16 17 17 16 16 15 14 13 12 12 11 11 11 11 11 11 10 10 9 9 8 7 7 6 5 5 6 7 8 8 8 9 10 10 10 10 9 10 11 11 11 11 11 10 10 10 9 9 8 7 6 5 5 5 4 4 4 4 4 4 5 5
25 26 27 27 27 26 28 28 28 27 26 26 24 22 21 20 18 17 17 16 16 16 17 17 17 16 16 15 14 13 12 11 11 10 10 10 10 10 9 9 9 9 9 8 8 8 7 7 8 8 9 9 8 9 10 11 11 10 10 10 10 10 10 11 11 10 10 10 9 8 8 8 8 6 5 5 4 4 4 4 3 4 4 5 6
27 28 28 27 26 27 28 28 28 27 26 25 23 22 21 19 18 17 17 17 17 17 17 17 17 16 15 14 13 12 12 11 10 10 9 9 9 9 9 9 9 9 8 9 9 8 8 9 9 10 10 9 9 10 10 11 11 10 11 11 10 10 10 10 10 10 10 10 9 9 10 11 11 10 9 8 7 6 5 4 3 3 4 5 6
28 29 29 27 27 27 27 27 27 27 26 24 22 21 20 18 18 18 19 19 18 18 18 17 16 16 15 14 13 12 11 11 10 9 9 9 8 8 8 9 9 9 9 10 10 9 9 10 10 10 10 11 11 11 11 11 10 10 11 11 11 10 9 10 10 10 10 10 9 10 12 13 14 13 12 11 11 11 10 8 7 5 5 5 6
29 29 28 26 27 28 28 27 27 27 25 23 22 20 19 18 18 19 19 19 19 18 17 16 16 16 15 14 13 12 10 10 9 9 8 8 8 9 9 10 9 10 10 10 10 10 10 10 10 10 10 11 11 11 11 11 10 10 10 11 12 11 9 9 10 10 9 9 8 10 13 13 14 14 13 13 12 13 13 11 10 8 6 6 6
29 29 28 27 27 29 28 28 28 27 24 22 21 20 19 19 19 20 20 19 18 17 16 16 16 15 14 13 11 10 9 9 8 8 8 8 8 9 10 10 11 11 11 11 11 10 10 10 11 10 10 10 10 10 10 10 10 10 10 10 12 12 10 9 9 9 9 8 7 10 13 12 13 13 12 14 14 13 13 12 11 10 8 8 8
30 29 29 28 28 29 29 29 28 26 23 21 20 19 19 19 20 20 20 19 18 16 15 15 15 14 12 11 10 9 9 8 7 7 8 8 9 10 11 11 12 12 12 11 11 11 11 11 10 10 10 10 10 10 10 11 10 10 10 10 11 12 11 10 9 9 9 8 8 10 10 10 11 12 11 13 14 13 13 12 11 10 9 8 9
30 29 29 29 28 28 29 29 28 25 23 21 20 19 19 20 20 20 20 18 17 15 15 14 14 12 11 10 9 9 9 8 8 8 8 9 10 11 11 11 12 12 12 12 12 12 12 11 11 10 10 10 10 10 10 10 10 10 10 10 10 11 12 11 9 8 8 7 9 10 9 9 10 11 11 12 13 11 11 11 10 10 9 9 10
28 28 29 29 28 28 29 28 26 24 22 21 20 19 19 20 20 20 19 18 16 14 14 14 13 12 10 10 10 10 10 9 9 9 9 10 11 12 11 11 12 13 13 13 13 13 13 12 12 11 11 10 10 10 10 10 10 10 10 10 10 10 10 11 10 9 7 7 9 9 8 8 8 10 9 10 11 11 10 10 10 9 9 10 11
28 28 28 29 29 29 28 27 26 24 22 21 20 19 19 20 20 20 18 17 15 14 14 13 12 11 11 11 11 11 10 10 10 10 10 11 12 12 12 12 13 14 14 14 14 14 14 14 13 12 12 11 10 10 9 9 9 9 10 10 10 9 9 10 10 10 8 7 8 7 7 8 8 9 8 8 10 10 9 8 10 10 10 11 11
29 27 27 28 29 28 27 27 25 23 22 21 20 18 19 20 20 19 18 16 14 13 13 12 11 11 11 12 12 12 11 11 11 11 11 11 12 12 13 13 14 14 14 15 15 15 14 14 14 13 12 11 10 10 9 9 9 9 9 9 9 9 8 8 9 10 9 8 7 6 6 6 7 7 7 7 8 8 6 7 9 10 10 10 10
29 27 27 28 28 28 26 26 24 23 22 21 20 18 18 19 19 18 17 15 14 13 11 10 10 10 11 12 12 12 12 12 12 11 11 12 12 12 13 14 14 14 14 14 14 14 13 13 13 13 12 12 10 9 8 8 8 8 8 8 8 9 9 8 8 9 9 9 8 6 5 5 5 5 6 6 5 5 5 5 7 8 10 10 10
27 26 26 26 27 27 25 25 24 23 22 21 20 18 18 19 18 17 16 14 13 11 10 9 9 10 11 12 12 12 12 13 13 12 12 12 12 12 13 14 14 14 14 13 13 12 12 12 12 12 12 11 10 9 8 7 7 7 7 7 7 7 8 8 8 8 8 8 8 8 5 3 4 4 4 5 4 4 6 6 6 7 8 9 9
27 26 25 25 26 25 24 24 23 23 22 21 20 18 18 18 18 17 15 13 12 10 9 8 9 9 10 11 12 12 12 12 13 13 13 12 12 12 13 14 14 14 13 12 11 11 12 12 12 11 11 10 9 8 8 7 6 6 6 6 6 6 7 7 7 7 7 7 7 8 6 4 5 4 3 4 5 5 7 7 5 6 6 7 8
27 26 26 25 25 24 23 23 23 23 22 21 20 19 18 18 17 16 14 13 11 9 8 8 8 9 9 10 11 11 11 12 13 14 13 12 12 12 13 14 13 12 11 10 10 11 11 12 12 11 10 9 9 8 8 7 7 6 6 6 6 5 6 6 6 6 6 6 6 7 6 5 5 4 3 4 5 5 7 7 5 5 5 5 5
26 26 25 25 25 24 23 23 23 23 23 22 21 20 18 17 17 15 14 12 10 9 7 8 8 8 9 9 10 11 11 11 12 12 12 12 11 12 12 12 10 10 9 9 10 10 11 11 11 11 10 10 9 9 7 7 7 7 7 8 7 6 5 5 5 5 5 5 5 6 5 5 5 5 5 5 5 6 7 6 5 4 4 4 4
26 26 25 25 25 24 23 23 23 24 23 23 22 20 19 17 16 15 14 12 10 8 7 8 8 8 8 9 9 9 10 10 11 11 11 10 10 10 11 10 9 9 9 9 10 9 9 10 10 11 10 10 10 9 7 6 6 6 6 7 7 7 6 4 4 3 3 3 3 4 5 5 5 6 6 6 5 6 7 6 5 5 4 4 3
26 26 26 26 25 24 24 23 23 23 23 23 23 22 20 18 17 15 13 12 10 8 8 8 8 8 8 8 8 8 8 8 9 9 9 10 9 10 10 10 9 9 8 8 8 8 8 9 9 9 10 10 10 10 8 6 5 5 5 6 6 7 6 5 4 3 2 2 1 3 4 4 5 5 6 6 5 6 7 7 6 6 5 4 3
27 26 25 25 25 24 23 23 23 23 23 23 23 22 21 19 17 15 13 12 10 9 9 9 8 8 7 7 7 6 6 6 7 7 8 9 9 9 9 9 9 8 7 7 7 7 7 7 8 7 9 10 10 10 9 7 6 5 4 5 6 6 6 5 5 3 2 2 1 2 3 3 4 4 5 6 5 6 6 6 6 6 5 4 3
26 26 25 25 24 24 23 23 23 23 23 23 23 22 21 20 18 16 14 12 10 9 10 10 9 8 7 6 6 5 4 5 5 6 7 8 9 9 8 8 7 7 7 7 7 7 7 7 7 8 9 10 11 12 11 9 7 6 6 6 6 5 5 5 5 3 2 2 1 1 2 3 3 3 4 4 6 6 5 5 5 5 5 4 4
26 26 25 25 24 24 23 22 22 23 23 23 22 22 21 20 18 16 14 12 11 10 11 10 9 8 7 6 5 4 4 4 5 6 7 8 9 9 8 7 7 6 6 6 7 7 7 6 7 8 9 11 12 13 13 11 9 8 7 7 6 5 4 4 4 3 3 2 2 2 2 2 3 3 3 3 5 6 5 5 5 5 5 5 4
26 26 26 25 24 24 24 23 23 23 24 23 23 22 21 20 18 16 15 13 12 12 12 11 9 8 6 5 4 4 4 5 6 6 7 8 8 8 8 7 7 6 6 6 6 6 6 6 7 8 9 11 12 13 12 11 10 8 7 7 7 7 5 4 2 2 3 3 3 3 4 3 3 3 3 3 3 4 5 5 4 4 4 4 3
24 25 25 25 25 25 25 24 23 23 24 24 23 22 21 20 18 17 15 14 13 13 12 11 9 7 6 5 4 4 4 5 6 7 7 7 8 7 7 7 7 6 6 5 5 6 6 7 7 8 9 10 10 11 11 11 10 8 7 7 7 7 6 4 2 1 2 4 4 5 5 5 4 4 3 3 3 3 4 4 4 4 3 3 3
23 24 24 24 24 25 25 24 23 24 24 24 23 22 21 20 18 17 16 15 14 14 13 11 10 8 6 5 4 4 4 5 5 6 7 7 7 7 6 6 6 5 5 5 5 5 6 7 7 7 8 8 9 9 10 10 10 8 7 8 7 6 5 5 2 3 3 4 5 5 6 6 5 4 4 3 3 3 3 3 3 4 3 3 4
23 23 24 24 24 25 25 25 24 24 24 24 23 23 22 20 19 18 17 16 15 14 13 11 10 8 6 5 5 4 4 4 4 5 6 6 7 6 6 5 5 4 4 4 4 4 5 6 6 7 7 8 8 9 10 11 10 9 8 8 7 5 4 5 2 3 4 3 5 6 6 7 6 5 4 4 3 3 3 2 2 2 3 4 4
22 22 23 24 25 25 26 25 25 25 24 24 23 23 22 20 19 18 18 17 16 15 13 11 10 8 7 6 5 5 4 4 4 4 5 5 6 5 5 4 4 4 4 3 3 4 5 5 6 7 7 8 9 10 12 11 9 9 8 8 7 5 4 5 3 3 4 3 3 5 6 7 8 7 5 5 4 3 3 3 2 1 2 3 4
22 21 22 23 24 25 26 26 26 25 25 24 23 23 22 21 20 19 18 18 17 15 13 11 10 8 7 7 6 5 4 4 4 4 4 4 4 4 4 4 4 4 3 3 3 4 4 4 5 6 7 7 9 11 12 10 8 8 9 9 8 7 6 5 3 2 5 3 1 3 5 7 8 8 7 6 5 4 3 3 2 1 1 1 2
22 22 22 23 24 25 26 26 25 25 25 24 23 23 22 21 20 20 19 18 17 15 13 11 10 9 8 7 6 5 4 4 4 4 4 3 3 4 4 3 3 3 2 2 2 3 3 3 5 6 6 7 9 10 11 8 7 7 8 7 7 8 7 6 2 4 5 3 1 1 4 6 9 10 9 8 6 5 4 4 3 1 1 1 1
23 24 24 24 24 25 26 26 25 25 25 24 23 23 22 21 20 20 19 18 17 14 13 11 10 9 8 7 6 5 5 4 4 4 4 3 3 3 3 2 2 2 2 3 3 3 3 3 4 5 6 7 8 9 8 6 6 7 7 6 5 6 6 6 2 4 5 3 2 1 2 5 8 10 9 9 8 7 6 5 4 3 2 2 2
23 23 24 24 24 25 25 25 25 25 25 24 23 23 22 21 20 19 18 18 16 14 13 11 10 10 9 8 7 6 5 5 5 4 3 3 2 2 2 2 2 2 3 3 3 3 3 4 5 6 7 8 8 9 7 5 5 7 7 5 4 5 6 6 2 3 6 5 3 2 1 4 7 9 9 9 10 8 7 6 5 4 4 3 3
23 23 24 25 25 24 24 25 25 25 25 24 23 23 22 21 20 20 18 18 16 14 13 12 11 11 9 8 7 6 6 5 5 4 4 3 2 1 2 2 2 2 2 2 2 3 4 4 5 7 7 8 8 8 7 6 5 5 6 5 4 5 5 5 2 4 6 4 2 3 4 5 6 7 9 9 9 8 8 7 6 5 4 4 4
23 24 24 25 25 24 25 25 25 26 25 24 23 23 22 21 21 20 19 18 16 15 14 13 12 11 10 8 7 7 6 6 5 5 4 3 2 1 1 1 2 2 1 2 2 3 4 5 6 7 7 7 7 6 6 6 4 4 5 6 5 5 4 3 3 6 6 3 2 2 4 6 6 5 7 8 8 8 8 8 7 6 5 4 4
24 24 24 24 25 26 25 25 25 26 25 25 24 23 22 21 20 20 19 18 16 15 14 13 13 12 10 9 8 8 7 6 6 5 5 4 3 1 0 0 1 1 1 2 3 4 4 5 6 6 6 6 5 5 6 5 4 2 4 5 5 4 2 3 5 8 7 3 2 1 3 6 7 6 6 6 8 9 9 8 7 7 6 5 5
24 24 24 24 25 26 25 24 25 25 25 24 24 23 23 21 21 20 19 18 16 15 14 14 13 12 11 10 9 9 8 7 6 6 5 5 4 2 1 1 0 1 1 2 3 4 4 5 6 5 4 4 4 5 5 4 3 2 3 5 4 3 2 6 7 8 6 4 2 1 2 4 6 8 8 8 8 9 9 9 8 7 7 6 5
24 24 25 25 25 25 25 24 24 25 24 24 24 24 23 22 21 20 19 18 17 16 15 14 13 12 11 10 10 10 10 9 7 7 6 5 4 2 2 2 1 0 1 2 2 3 4 4 4 5 4 3 3 4 4 4 4 2 4 6 4 0 2 6 8 7 5 4 3 1 3 3 5 8 8 8 8 7 7 8 8 7 7 6 5
24 25 26 26 26 25 25 24 24 24 24 24 24 24 23 23 22 21 19 18 18 17 16 15 14 13 12 11 11 11 10 10 9 8 7 6 5 3 3 2 2 1 1 2 2 3 4 3 3 4 3 2 3 3 4 5 6 3 3 4 3 1 3 7 9 7 6 4 3 2 3 4 5 6 7 6 6 6 6 6 7 7 8 7 7
25 26 27 27 27 27 26 26 25 25 25 25 25 24 24 23 23 21 20 19 18 18 16 16 15 14 13 13 12 12 11 10 9 9 8 7 5 4 3 3 2 2 3 3 3 3 3 3 2 2 2 2 3 3 5 7 6 5 4 3 3 2 4 8 9 6 5 3 3 3 3 4 6 6 6 6 6 7 7 6 6 6 8 8 8
26 27 28 28 29 28 28 27 26 26 26 26 26 26 25 24 23 22 21 20 19 18 17 16 16 15 15 14 13 13 12 11 10 9 8 7 6 5 4 4 4 4 4 3 4 4 3 3 2 2 1 2 3 4 6 7 6 6 5 5 5 4 5 9 8 6 5 3 3 3 3 4 6 6 6 6 6 7 8 7 6 6 7 8 8
28 27 28 29 29 30 29 28 27 27 27 27 26 26 25 24 23 21 20 19 18 18 17 17 17 17 16 16 15 14 13 12 11 10 9 8 7 6 5 5 5 5 5 5 4 4 3 3 3 2 1 2 2 4 6 6 6 6 6 6 6 6 7 8 7 7 6 3 2 2 2 3 5 6 6 6 6 7 7 7 6 7 8 8 9
28 28 29 29 30 30 29 28 28 28 27 26 25 24 23 22 21 20 19 18 18 17 17 18 18 18 17 17 16 16 15 13 12 11 10 9 8 7 6 6 5 5 6 5 5 4 3 3 3 2 1 2 2 4 5 6 6 6 5 6 6 7 7 7 8 7 6 4 2 1 1 3 4 4 5 4 4 5 7 7 7 8 8 8 9
29 29 29 29 30 30 30 30 29 28 27 26 25 24 23 22 21 20 20 19 19 18 18 19 18 18 18 18 18 17 16 15 13 12 11 10 9 8 7 6 6 6 6 5 6 5 3 3 4 2 0 1 3 4 4 6 6 5 4 5 5 5 5 6 8 7 6 5 4 2 1 3 4 4 4 3 2 3 5 7 7 8 9 8 9
29 29 29 30 30 31 30 30 29 27 27 26 25 24 23 23 22 22 21 21 20 20 20 20 19 19 19 19 18 18 17 15 14 14 13 12 10 9 8 7 6 6 6 6 6 5 4 4 4 2 1 1 1 3 6 7 6 4 3 3 3 4 4 5 6 6 6 5 4 2 0 2 3 4 4 3 3 2 2 5 6 6 8 8 9
29 28 29 29 30 31 30 29 28 27 27 26 25 25 25 24 24 24 24 23 22 21 21 20 20 19 18 18 18 18 17 16 15 14 14 13 11 10 8 8 7 7 6 7 6 6 5 5 5 3 2 1 1 4 8 8 5 4 3 1 1 3 3 3 5 4 5 5 4 3 1 2 2 4 5 3 2 1 1 2 4 4 4 5 6
29 28 28 29 30 30 30 29 28 28 27 26 26 26 26 25 25 25 23 22 21 20 19 17 17 17 17 17 18 18 18 17 16 16 15 13 12 10 10 9 8 8 7 7 7 6 6 6 6 4 3 2 3 6 9 8 4 3 3 2 2 2 2 3 4 3 3 4 3 3 2 2 2 4 5 4 2 2 1 0 1 3 3 3 4
28 28 28 28 29 30 30 30 29 29 28 27 27 26 26 26 25 23 21 20 20 18 17 15 15 15 16 17 18 18 18 18 17 17 16 14 13 12 11 10 9 9 8 8 8 8 8 8 7 5 3 2 4 7 8 6 3 3 2 2 2 1 1 1 2 2 2 2 2 2 2 2 2 4 5 5 4 3 2 1 1 2 3 3 3
27 29 29 28 29 30 30 30 29 29 29 28 27 26 26 25 24 23 22 21 20 19 17 16 15 16 17 17 18 19 19 19 18 18 17 16 15 13 12 12 11 10 9 9 9 9 9 9 8 6 4 3 4 7 6 2 2 2 1 1 1 0 1 1 2 2 2 2 1 1 2 2 3 4 4 5 5 5 4 3 2 2 3 3 3
28 28 28 27 28 30 31 31 30 30 29 28 27 27 26 25 25 23 22 22 21 20 19 18 17 17 17 18 19 19 19 19 19 19 18 17 16 14 14 13 12 11 10 10 11 11 11 10 9 7 5 4 5 6 3 0 1 1 1 2 1 1 1 1 2 3 3 2 2 2 3 3 4 4 4 5 6 6 6 5 4 4 4 4 4
27 27 28 29 29 31 32 32 31 30 29 28 28 27 27 26 26 24 23 22 22 21 20 19 19 18 18 18 18 18 18 19 19 19 19 18 16 15 15 14 13 13 12 12 13 12 12 12 10 8 6 5 6 5 3 3 2 2 2 3 3 3 2 2 1 2 2 2 3 3 3 3 4 5 5 6 6 6 6 6 6 5 5 5 5
27 28 29 30 30 31 32 33 32 31 30 29 28 28 28 28 26 24 23 23 23 22 21 20 18 17 16 16 16 16 16 17 18 18 18 18 17 16 15 15 14 14 13 13 14 14 13 14 12 9 7 5 6 4 5 4 4 3 3 4 4 5 5 3 2 1 1 1 2 3 3 3 4 6 6 6 6 7 6 7 7 7 7 7 7
Wind_Direction
134 132 132 134 136 137 136 134 131 132 134 136 135 133 130 125 122 122 123 121 118 115 113 112 115 119 120 121 120 118 114 109 104 101 99 99 103 107 110 113 116 120 125 129 133 135 135 132 103 69 67 76 78 75 71 70 72 72 67 60 56 61 68 75 82 89 99 105 110 119 119 134 159 166 178 184 193 202 207 216 230 235 234 224 215
135 133 132 134 136 138 134 132 132 133 136 136 134 131 126 123 124 123 120 115 112 111 111 114 118 120 122 122 119 115 111 107 102 99 98 100 104 108 110 112 116 119 121 124 127 130 129 119 95 83 83 85 83 79 74 71 73 73 70 66 64 66 71 78 83 86 92 101 107 112 114 119 129 140 153 166 181 190 197 207 215 207 209 212 213
136 134 134 135 135 135 132 132 134 135 136 135 133 129 125 126 125 120 114 111 110 113 117 118 119 121 121 119 116 113 110 105 102 100 100 101 105 107 109 111 113 112 113 116 118 118 113 101 93 92 90 86 83 78 74 70 72 74 70 69 71 71 75 79 85 90 93 99 102 104 109 111 116 127 140 151 162 164 175 188 198 193 191 197 203
135 136 136 134 132 133 132 134 136 136 137 135 132 129 127 125 120 115 111 112 116 119 120 118 118 119 117 115 113 111 108 105 101 99 99 101 103 102 105 107 104 102 102 102 103 102 100 97 95 93 90 85 79 76 73 69 71 74 68 68 75 77 79 83 86 91 95 98 101 105 106 106 109 116 126 132 136 144 157 163 173 176 179 185 184
134 137 136 133 132 135 136 136 137 138 138 135 132 130 126 121 116 113 113 116 120 120 117 116 114 112 110 110 110 109 105 102 100 97 97 98 99 100 103 104 100 96 96 94 94 95 97 96 95 91 85 81 77 75 73 69 68 68 64 63 72 80 82 87 90 90 93 96 98 105 108 106 101 99 103 105 104 108 115 120 126 134 150 168 168
137 138 137 136 136 138 139 138 139 140 140 136 133 129 124 118 115 114 117 119 119 116 113 110 108 105 104 105 105 103 101 100 99 98 97 98 98 100 103 104 100 96 94 93 94 96 98 95 92 89 84 79 77 75 71 67 66 65 65 63 67 78 83 87 93 94 93 97 109 116 111 103 97 93 94 97 96 93 91 93 96 103 121 143 154
141 142 141 141 142 143 142 141 142 143 141 137 133 128 122 116 115 117 119 118 115 111 107 104 102 100 99 99 98 96 98 99 98 96 95 99 102 103 105 105 100 97 96 95 97 99 100 97 94 90 84 78 75 74 70 67 69 69 69 65 65 73 84 85 91 96 91 96 114 110 100 95 92 89 90 91 89 87 85 87 91 93 106 123 137
144 145 146 145 146 147 146 146 146 145 141 138 135 126 119 116 118 119 118 114 110 106 104 102 99 96 94 92 92 94 98 98 96 92 92 99 106 107 106 105 101 100 100 100 100 100 99 96 94 90 82 76 72 71 70 71 73 74 71 67 63 66 81 87 88 91 87 87 88 84 89 95 94 90 89 88 85 85 84 83 86 87 95 110 122
146 147 149 149 148 148 148 149 148 146 143 142 134 123 118 119 121 120 116 111 107 106 103 100 96 92 90 90 93 96 99 98 95 91 92 100 108 109 107 105 102 100 100 100 100 98 96 94 92 88 78 71 67 66 67 70 71 72 70 67 65 63 73 85 88 86 82 81 79 81 91 98 99 94 87 87 86 84 86 84 82 83 86 98 108
148 147 150 152 151 149 148 149 149 147 147 144 132 122 120 122 123 120 115 112 109 108 104 98 93 89 89 91 96 98 99 98 98 99 99 104 110 110 107 103 99 98 96 96 97 96 95 94 91 84 77 71 67 66 65 67 68 67 66 65 67 65 68 77 82 83 82 81 81 82 88 94 97 94 85 86 88 82 86 88 86 90 89 95 100
151 150 151 153 153 150 149 150 151 151 150 143 131 123 122 125 125 121 117 114 112 108 103 96 90 87 88 92 97 97 97 98 102 107 108 109 112 109 104 100 98 97 95 94 94 93 92 91 87 81 77 74 70 69 68 67 66 64 63 63 64 66 68 73 76 80 83 79 79 83 87 90 89 89 84 85 89 83 85 91 91 96 99 101 101
154 154 154 155 155 152 151 153 155 155 151 141 133 126 126 128 127 123 120 117 113 107 100 93 89 86 88 94 96 94 92 93 99 107 112 113 112 108 103 100 100 97 94 93 90 87 86 84 81 77 73 70 66 66 66 66 66 64 62 62 62 65 71 75 75 77 80 77 77 80 85 86 81 85 85 80 82 79 81 93 98 103 106 106 105
157 158 157 158 157 155 154 157 158 156 150 142 137 130 130 131 129 126 123 118 111 104 99 95 91 88 92 96 94 90 88 87 92 101 110 114 110 105 101 101 99 97 93 89 86 83 80 78 75 72 68 63 60 59 60 60 62 62 59 59 61 63 70 76 78 77 77 82 84 79 83 88 86 88 89 76 71 74 81 97 106 110 113 113 115
158 160 160 159 157 157 158 159 158 156 150 146 143 136 134 134 132 129 124 118 110 104 101 98 94 92 95 96 92 89 87 84 86 94 104 110 107 102 100 99 98 94 89 84 82 81 79 77 74 70 65 60 58 57 57 57 57 57 55 53 56 60 66 71 76 79 77 81 90 92 86 88 94 91 85 77 68 81 100 104 109 114 118 125 130
160 162 163 160 158 159 160 159 158 157 154 152 149 142 139 138 136 132 126 120 113 108 105 102 97 96 97 96 92 90 87 84 84 89 98 105 104 99 99 99 99 93 86 82 81 82 83 80 77 72 67 63 59 56 54 54 53 53 53 48 47 52 61 67 70 75 79 80 87 95 91 83 103 95 80 89 92 99 111 112 115 118 119 127 139
163 165 165 163 160 161 161 159 160 160 159 159 156 149 144 143 141 136 130 125 118 113 111 109 103 100 101 99 95 91 88 84 84 86 90 98 101 99 100 101 99 92 84 81 81 82 83 78 75 72 67 61 53 49 47 47 47 48 52 49 42 40 50 62 66 67 76 81 82 92 99 107 115 108 100 108 110 108 113 118 115 113 118 125 139
165 167 167 166 163 163 163 161 163 164 165 165 162 156 151 148 146 141 136 131 124 120 119 118 112 108 108 105 98 92 89 84 85 86 86 91 98 100 101 103 98 91 85 81 80 80 78 72 70 67 59 52 47 44 43 43 43 45 48 47 44 39 38 49 60 61 66 76 81 88 97 108 108 106 115 119 119 114 117 124 113 103 112 123 138
167 169 169 167 166 165 165 164 166 168 169 169 168 163 158 155 152 148 143 138 132 129 130 129 121 117 116 110 102 93 88 85 85 88 89 89 95 103 105 106 101 94 90 84 81 81 78 74 72 64 54 48 48 49 49 51 48 48 50 46 43 38 35 42 54 53 57 67 77 89 97 104 105 104 106 111 122 123 124 128 121 109 102 110 139
170 171 170 169 169 168 167 168 170 171 171 171 172 169 164 161 158 155 150 146 142 140 142 141 130 123 121 115 106 96 91 86 86 89 91 92 95 103 108 107 104 100 96 88 87 87 81 78 73 61 52 47 46 47 51 60 58 61 59 47 44 37 30 31 44 44 49 60 73 95 100 96 99 103 100 98 105 122 133 136 138 136 120 113 137
173 173 173 172 171 170 169 171 172 172 173 173 174 174 171 166 164 161 157 154 151 151 153 150 138 128 126 122 114 103 94 86 85 88 91 97 100 101 103 104 103 100 94 87 84 84 79 74 68 55 48 41 37 39 43 58 66 74 70 48 44 39 30 24 23 22 29 33 69 96 99 90 87 96 99 98 99 113 130 135 140 145 139 124 128
177 177 176 175 173 172 171 173 174 174 175 175 175 175 174 171 170 166 163 162 159 161 162 157 146 135 131 127 122 111 98 87 84 88 92 95 99 98 98 99 98 94 86 79 72 69 67 64 60 50 43 35 32 36 40 53 66 75 70 48 43 37 35 31 20 6 349 320 354 87 99 95 87 90 92 94 95 101 114 123 129 136 137 123 115
180 180 180 178 176 174 174 174 175 176 177 176 177 176 175 174 174 171 169 168 167 169 168 163 153 143 136 129 124 114 100 89 85 89 90 89 94 95 94 92 89 88 85 79 69 60 58 58 56 47 42 36 35 41 43 47 56 63 59 50 47 39 34 33 21 360 333 297 277 139 124 110 102 102 99 91 89 93 99 102 108 114 119 113 105
182 183 183 181 178 176 175 176 176 178 179 178 178 177 176 176 175 175 173 171 172 175 173 167 159 150 142 134 124 115 106 95 93 95 93 91 91 90 91 90 87 88 91 87 77 67 60 57 52 46 43 39 39 44 46 43 43 47 48 45 39 28 20 24 20 352 323 286 258 238 199 145 128 117 117 107 93 93 91 87 98 105 107 109 107
183 184 185 183 180 178 177 178 177 179 181 181 180 178 176 176 176 176 174 175 177 178 176 169 161 155 145 138 129 117 112 104 108 109 103 99 93 91 95 97 94 91 91 91 80 70 58 47 42 40 40 39 40 44 47 43 38 36 35 31 24 16 9 360 351 330 301 271 255 241 229 196 163 137 124 117 104 96 93 87 90 92 89 98 107
183 185 186 184 181 179 179 179 179 181 183 183 182 180 178 178 177 177 177 178 181 180 177 169 161 157 148 142 137 127 120 114 116 116 113 109 101 98 99 100 97 91 85 79 67 54 42 33 31 32 33 35 37 39 43 41 35 30 22 19 19 15 9 346 274 233 266 260 245 234 233 220 190 164 143 124 118 103 98 96 89 87 81 77 84
184 185 186 184 181 178 179 180 182 183 184 184 183 182 181 180 179 178 179 180 182 181 177 172 164 159 155 151 148 141 132 122 116 115 116 113 109 105 100 99 95 87 79 67 52 36 29 22 22 26 26 28 30 31 33 33 32 29 15 9 14 16 9 350 278 208 211 240 237 227 230 228 211 185 168 150 138 129 124 120 97 93 87 67 62
186 186 185 183 180 178 179 181 183 184 184 184 183 183 182 182 182 181 180 182 184 181 179 176 168 163 164 163 163 157 146 133 122 118 115 109 108 105 100 98 90 80 71 62 43 26 21 12 12 17 18 19 21 23 24 24 25 24 12 360 10 19 358 343 307 207 197 222 233 223 226 230 218 201 186 170 161 150 139 143 124 90 79 68 63
188 186 185 183 180 179 181 182 184 184 184 184 182 182 182 182 183 183 182 183 184 183 182 178 170 170 171 172 174 168 158 143 132 123 114 108 104 100 97 90 81 73 62 52 26 13 11 4 4 9 14 15 14 17 19 21 19 14 5 355 359 8 348 334 322 204 181 193 230 224 224 228 218 206 195 185 178 169 151 149 155 109 84 71 78
188 186 184 183 180 180 182 184 185 185 184 183 181 181 182 182 183 183 184 184 185 185 184 178 174 177 176 178 182 177 166 153 141 129 120 111 105 102 92 81 73 65 54 35 6 360 5 2 359 3 11 13 11 13 15 20 17 1 357 353 347 346 338 330 337 156 156 152 214 237 226 222 217 204 197 200 190 178 172 158 158 133 132 100 108
187 185 185 183 181 181 183 185 185 185 185 183 183 183 182 183 183 183 184 184 185 186 183 179 180 182 182 185 189 186 174 164 151 138 130 122 118 108 92 78 65 55 35 14 360 5 14 1 355 359 6 8 10 13 12 15 8 352 356 356 337 329 326 325 355 120 129 131 135 262 240 225 214 204 197 201 196 189 190 176 177 183 193 225 193
187 186 185 184 183 183 183 184 184 186 185 183 184 184 183 183 183 183 183 184 187 186 183 182 184 186 189 192 197 195 182 174 164 152 148 141 135 117 98 82 50 34 9 2 359 4 5 355 355 357 3 5 9 15 14 10 357 346 353 354 325 311 311 318 344 117 120 133 165 154 263 241 212 202 200 202 200 196 196 192 193 203 216 240 240
189 187 186 185 184 183 183 184 185 186 184 183 184 184 184 183 182 184 184 186 187 185 184 185 187 189 192 194 197 198 188 181 175 170 170 164 160 132 108 88 51 23 7 359 350 352 351 354 357 358 5 6 8 17 17 10 358 343 340 343 321 294 291 302 310 128 125 140 172 142 170 235 211 203 208 211 210 202 199 201 203 211 219 231 241
190 188 188 188 185 184 185 186 187 187 184 183 183 183 183 183 184 186 187 188 187 186 188 189 191 193 193 194 196 196 191 185 181 181 182 181 178 139 102 79 61 36 18 5 360 360 355 359 359 2 9 7 7 14 13 6 359 338 325 324 306 274 272 278 248 123 114 126 165 151 172 210 216 213 217 223 222 213 209 211 213 220 221 215 224
192 191 190 189 186 185 186 187 188 187 184 182 182 182 182 185 186 187 190 190 189 190 191 193 196 196 195 197 198 197 194 186 182 182 183 185 189 168 94 84 78 64 33 13 16 15 4 1 2 6 11 8 5 7 9 4 351 331 310 308 290 262 262 250 177 116 106 117 162 174 186 202 214 224 224 228 233 227 222 223 225 228 225 217 221
193 194 192 190 188 188 188 188 189 186 185 184 182 182 184 186 189 190 192 192 192 194 194 197 200 199 200 202 203 202 199 191 186 185 185 188 198 214 226 90 86 75 38 11 5 5 2 1 3 9 11 4 359 4 9 357 342 332 305 296 272 260 241 178 132 107 107 111 132 209 211 199 208 221 219 218 230 235 232 230 232 233 232 229 233
194 194 194 194 191 190 190 189 189 187 187 186 183 184 186 188 191 193 195 195 195 198 198 203 204 204 205 207 208 207 205 202 198 194 190 192 204 219 236 270 43 60 13 358 349 349 354 356 359 5 8 360 3 14 3 347 353 340 299 287 264 262 182 152 123 103 109 119 120 238 239 209 212 219 216 210 218 229 233 232 233 235 239 238 241
194 194 195 196 194 193 192 191 190 188 189 188 187 188 189 191 193 195 198 198 198 200 203 206 208 209 208 210 212 211 211 209 207 201 195 196 206 218 240 268 270 270 318 336 335 341 347 346 353 1 1 1 24 22 355 3 22 358 306 298 288 326 142 137 116 109 115 130 139 180 242 228 220 221 223 223 224 228 236 242 242 241 248 252 249
194 195 195 197 196 195 195 193 192 191 191 191 191 192 193 195 197 199 202 202 202 203 206 209 211 212 211 213 215 214 214 213 209 205 201 201 206 216 235 256 253 252 278 310 323 336 344 337 342 354 349 358 39 30 12 30 38 37 354 316 319 69 123 112 106 117 124 141 158 171 236 238 229 226 226 235 245 242 236 246 255 255 257 262 257
195 195 196 196 197 197 197 196 195 195 194 195 195 196 197 199 200 204 206 205 206 206 208 211 213 215 215 216 218 217 217 215 211 207 204 203 205 214 232 248 247 257 273 295 310 320 332 321 308 328 334 1 31 33 26 36 44 45 34 5 22 65 116 108 107 121 129 149 172 175 220 238 237 231 223 225 244 253 243 234 241 254 260 259 255
197 197 197 197 197 198 198 198 198 198 198 198 199 200 201 203 204 207 209 208 209 210 211 213 216 219 219 219 220 219 218 217 214 210 206 204 208 219 232 246 252 263 272 284 298 303 309 300 277 285 342 21 26 36 34 36 44 44 41 42 50 64 93 100 108 127 137 153 180 186 207 237 240 239 233 222 227 248 252 240 229 230 251 260 259
199 199 199 199 199 199 199 199 199 201 202 202 203 204 204 206 207 209 210 211 213 214 215 217 221 222 222 221 221 220 219 218 216 213 210 208 213 224 233 247 256 265 271 275 284 287 286 283 270 274 7 45 34 41 40 35 40 41 42 49 57 68 78 88 108 131 140 141 165 200 233 254 252 246 242 236 228 241 252 250 242 230 235 251 260
201 201 201 201 201 201 201 200 201 204 205 205 205 206 207 209 210 211 212 212 214 215 217 220 222 223 223 222 221 220 218 218 217 215 215 215 219 226 233 245 253 258 263 267 274 272 258 261 262 264 360 57 49 44 37 29 30 32 40 55 64 68 77 94 114 128 136 141 156 185 253 274 276 263 251 243 229 242 255 248 242 243 238 236 246
205 204 202 202 202 203 202 201 202 205 206 207 207 207 208 209 211 211 211 212 213 215 217 219 221 222 221 220 219 218 217 218 218 216 218 221 223 226 231 242 248 250 253 258 264 257 234 239 251 244 181 85 66 50 20 6 6 9 31 49 58 67 75 92 108 121 129 139 162 170 252 283 290 284 276 267 236 239 267 259 245 248 251 245 250
208 207 206 205 204 204 204 203 203 205 207 208 207 207 207 209 210 211 210 210 211 212 214 216 218 218 218 219 218 216 216 218 218 218 220 223 223 225 231 238 243 245 248 254 254 240 222 232 238 220 183 205 79 40 355 344 345 345 15 36 52 83 86 92 103 117 128 136 159 161 244 282 288 291 285 277 259 244 272 283 272 260 259 256 256
212 211 209 208 207 206 205 205 204 206 208 208 208 207 208 209 210 209 208 208 208 209 212 214 215 216 216 217 218 217 217 218 219 219 222 223 222 224 230 235 239 243 249 255 246 224 218 226 222 210 203 247 321 5 343 338 342 343 3 32 52 74 91 120 115 121 133 136 155 160 185 270 289 305 302 299 285 265 239 285 297 287 273 264 259
216 214 212 211 209 207 206 205 205 206 208 209 209 208 209 210 210 210 209 209 210 212 214 215 217 218 217 218 219 219 218 218 219 221 222 224 224 226 230 233 235 238 245 250 236 217 216 219 211 208 212 258 323 346 340 339 355 1 8 29 37 62 94 140 130 132 142 137 155 169 187 251 286 306 312 333 354 338 315 271 331 318 303 286 271
219 216 215 214 211 209 208 207 207 207 208 209 210 210 209 210 211 211 211 213 215 217 217 217 219 221 221 222 222 221 220 219 220 221 222 224 225 227 230 232 233 234 238 239 229 216 214 215 211 210 214 245 319 338 338 341 4 5 6 13 22 67 108 144 135 139 151 159 176 193 209 224 268 291 306 324 333 336 339 12 29 324 304 298 286
220 218 217 215 213 212 210 209 209 209 210 211 211 212 211 211 212 212 213 215 216 216 214 212 215 218 221 224 225 224 223 222 222 221 222 224 225 226 228 231 232 232 233 231 225 218 213 214 211 210 219 247 306 331 334 347 22 6 357 355 360 181 214 173 166 178 184 194 206 252 261 248 276 284 294 311 311 315 330 343 349 326 308 314 315
222 220 219 218 215 213 212 211 211 211 212 213 213 213 213 214 215 215 216 217 217 214 210 208 209 212 216 221 224 225 224 224 223 222 222 224 224 224 226 228 231 232 231 227 224 219 213 211 212 214 224 252 296 319 313 162 84 47 33 29 61 118 176 176 218 221 199 192 209 240 263 278 294 291 287 295 295 299 315 326 328 326 318 320 324
224 223 221 219 217 215 214 213 213 213 214 215 215 214 214 215 216 215 216 217 217 214 210 209 209 211 214 219 223 226 226 225 224 222 221 223 223 224 225 227 230 232 230 226 222 218 213 211 213 218 225 251 288 297 244 179 135 117 88 67 67 75 91 124 198 229 218 219 231 231 237 255 278 282 281 284 285 289 300 305 306 311 312 311 310
225 223 221 220 219 217 215 215 214 214 215 215 215 215 215 216 215 214 214 215 216 215 213 213 215 216 219 222 226 230 231 228 226 223 220 222 223 223 225 227 231 232 231 228 221 216 214 213 213 218 222 246 276 258 211 184 153 136 108 84 72 68 71 78 87 90 213 227 247 249 249 256 263 269 275 280 283 283 286 290 292 297 301 300 296